Regional Weather Roundup
Issued by NWS

Home | Current Version | Previous Version | Text Only | Print | Product List | Glossary Off
Versions: 1 2 3 4 5 6 7 8 9 10 11 12 13 14 15 16 17 18 19 20 21 22 23 24 25 26 27 28 29 30 31 32 33 34 35 36 37 38 39 40 41 42 43 44 45 46 47 48 49 50

000
ASUS43 KLOT 251909
RWRIL

ILLINOIS REGIONAL WEATHER ROUNDUP
NATIONAL WEATHER SERVICE CHICAGO/ROMEOVILLE IL
200 PM CDT THU MAY 25 2017

NOTE: "FAIR" INDICATES FEW OR NO CLOUDS BELOW 12,000 FEET WITH NO
SIGNIFICANT WEATHER AND/OR OBSTRUCTIONS TO VISIBILITY.

* THESE STATIONS ARE NOT UNDER NWS QUALITY CONTROL. THEY ALSO MAY NOT
  REPORT WEATHER SUCH AS PRECIPITATION OR FOG.

ILZ001-002-007-009-015-016-024-252000-
NORTHWEST ILLINOIS

CITY           SKY/WX    TMP DP  RH WIND       PRES   REMARKS
MOLINE         PTSUNNY   70  54  56 VRB3      29.68F
STERLING*      CLOUDY    65  55  70 NW5       29.70S
SAVANNA*       MOSUNNY   64  54  70 W6        29.69F
$$

ILZ003-004-008-010-011-017-018-252000-
NORTH CENTRAL ILLINOIS

CITY           SKY/WX    TMP DP  RH WIND       PRES   REMARKS
ROCKFORD       PTSUNNY   65  54  67 N8        29.68F
FREEPORT*      PTSUNNY   64  55  70 CALM      29.70S
ROCHELLE*      CLOUDY    63  54  73 NW9       29.68F
DE KALB*       CLOUDY    62  53  74 NW8       29.68S
PERU*          CLOUDY    62  53  72 NW9       29.69F
$$

ILZ005-006-012>014-019>023-252000-
NORTHEAST ILLINOIS

CITY           SKY/WX    TMP DP  RH WIND       PRES   REMARKS
CHICAGO-OHARE  PTSUNNY   67  53  61 N8        29.63S
CHICAGO-MIDWAY PTSUNNY   66  54  65 N6        29.63S
AURORA         CLOUDY    65  56  72 NW14      29.67R
LANSING*       PTSUNNY   64  57  78 N6        29.64S
JOLIET*        CLOUDY    64  56  75 W7        29.66S
WAUKEGAN       MOSUNNY   66  54  65 NE13      29.63S
DUPAGE AIRPORT CLOUDY    64  55  72 NW12      29.64S
KANKAKEE*      CLOUDY    64  54  72 W12G18    29.66R
WHEELING       CLOUDY    65  55  70 NE6       29.65R
MORRIS*        CLOUDY    63  55  76 NW9       29.66S
ROMEOVILLE*    CLOUDY    63  58  81 NW8       29.65S
NORTHERLY ISL    N/A     59  51  75 N13         N/A
$$

LMZ740>746-252000-
SOUTHERN LAKE MICHIGAN

STATION/POSITION SKY/WX   TEMP    WIND        PRES    VSBY  WAVE
                          AIR SEA DIR/SP/G                  HT/PER
                          (F)     (DEG/KT/KT) (MB)    (MI)  (FT/S)
SOUTHERN BUOY              46 45  350/ 12/ 16 1002.8          3/ 5
WILMETTE HARBOR            50 52                N/A           4/ 5
HARRISON CRIB              52     360/ 17/ 19   N/A
BURNHAM HARBOR             59     340/  9/ 17   N/A
CALUMET HARBOR             58     340/ 10/ 16 1003.5R
BURNS HARBOR               51     330/ 10/ 15 1004.4R
MICHIGAN CITY              48     300/ 12/ 14   N/A
MICHIGAN CITY 6N           48 51  320/ 10/ 14   N/A           4/ 5
ST. JOSEPH                 53 56  340/ 12/ 16 1002.9          4/ 5
$$

ILZ025>027-034>036-040-047-049-050-058-095>099-252000-
WEST-CENTRAL ILLINOIS

CITY           SKY/WX    TMP DP  RH WIND       PRES   REMARKS
QUINCY         MOSUNNY   69  52  54 VRB3      29.71F
GALESBURG*     PTSUNNY   69  53  56 NW5       29.68F
MACOMB*        PTSUNNY   68  56  65 W6        29.72S
JACKSONVILLE*  PTSUNNY   68  54  60 NW6       29.71R
PITTSFIELD*    MOSUNNY   69  55  60 W7        29.73S
$$

ILZ028>032-037-038-041>044-048-051>054-059>061-252000-
CENTRAL ILLINOIS

CITY           SKY/WX    TMP DP  RH WIND       PRES   REMARKS
PONTIAC        CLOUDY    62  57  82 NW10      29.69S
BLOOMINGTON    CLOUDY    60  54  80 NW9       29.71S
DECATUR        PTSUNNY   67  56  67 NW10      29.70S
PEORIA         PTSUNNY   67  56  67 VRB3      29.69S
LACON*         CLOUDY    60  55  83 N5        29.69F
LINCOLN*       PTSUNNY   69  58  68 NW5       29.69S
SPRINGFIELD    CLOUDY    71  57  61 W8        29.70S
TAYLORVILLE    PTSUNNY   69  56  63 NW9G20    29.71R
$$

ILZ033-039-045-046-055>057-062-063-252000-
EAST-CENTRAL ILLINOIS

CITY           SKY/WX    TMP DP  RH WIND       PRES   REMARKS
CHAMPAIGN      CLOUDY    62  54  74 NW13      29.69R
RANTOUL*       CLOUDY    64  57  77 NW15      29.68S
MATTOON        CLOUDY    64  57  78 NW12      29.70R
PARIS*         CLOUDY    64  57  78 NW15G21   29.68R
$$

ILZ079-100>102-252000-
SOUTHWEST ILLINOIS

CITY           SKY/WX    TMP DP  RH WIND       PRES   REMARKS
ALTON          MOSUNNY   68  54  60 W12       29.72F
BELLEVILLE     MOSUNNY   73  53  50 W6        29.73S
CAHOKIA*       MOSUNNY   74  50  42 N7        29.72S
SPARTA*        PTSUNNY   70  52  52 W5        29.74S
$$

ILZ064>066-069>071-074>076-080>082-084>086-088>090-092>094-252000-
SOUTH-CENTRAL ILLINOIS

CITY           SKY/WX    TMP DP  RH WIND       PRES   REMARKS
CARBONDALE     MOSUNNY   72  52  49 W10G18    29.74R
CAIRO*         MOSUNNY   73  51  45 W10G16    29.75S
EFFINGHAM*     PTSUNNY   70  58  65 W10       29.71S
MARION         PTSUNNY   72  54  53 W6        29.75R
MT. VERNON       N/A     72  55  55 VRB5G16   29.72R
CENTRALIA*     MOSUNNY   72  56  57 NW12G18   29.72R
SALEM*         PTSUNNY   72  55  54 W12       29.71R
METROPOLIS*    MOSUNNY   73  52  47 W13G18    29.76R
$$

ILZ067-068-072-073-078-083-087-091-252000-
SOUTHEAST ILLINOIS

CITY           SKY/WX    TMP DP  RH WIND       PRES   REMARKS
LAWRENCEVILLE  PTSUNNY   67  57  70 W16       29.69S
FLORA*         MOSUNNY   72  57  58 NW12      29.70S
FAIRFIELD*     MOSUNNY   71  56  59 NW5       29.70R
HARRISBURG*    MOSUNNY   73  56  54 W13G20    29.73R
ROBINSON*      CLOUDY    64  56  75 NW13      29.70S
CARMI*         MOSUNNY   73  57  58 W14G21    29.70R
$$

ABBREVIATIONS USED IN REMARKS
   TC - TEMPERATURE IN CELSIUS
  WCI - WIND CHILL INDEX
   HX - HEAT INDEX
  VSB - VISIBILITY
$$





USA.gov is the U.S. government's official web portal to all federal, state and local government web resources and services.